Cape Fenshaw FAA Web Cam AK US FAA-ALASKA current weather conditions

sailwx.info

Wind from 105 at 13 knots

Air temperature 4.9° C
Dewpoint 1.4° C

Last reported at 2020-Oct-20 04:50 UTC.
Time now 2020-Oct-20 12:16 UTC

Location: N 57°11' W 133°34'.
View on Google Maps.

See reports from other nearby stations

  
Tides and Currents Weather Stations Pressure Air Temp Water Temp Dewpoint Dewpoint Depression Visibility Wind Speed Wind Dir Waves Ship Positions
date/time (UTC)wind fromknots sea level pressurealtimeterstation pressurevisibilityair tempwater tempwave heightnotes
2020-Oct-20 04:50 105 13 4.9
2020-Oct-20 04:40 107 9 4.7
2020-Oct-20 04:30 140 11 4.6
2020-Oct-20 04:20 127 8 4.8
2020-Oct-20 04:10 126 11 4.8
2020-Oct-20 03:50 125 10 4.8
2020-Oct-20 03:40 131 15 4.9
2020-Oct-20 03:30 125 13 4.9
2020-Oct-20 03:20 126 13 4.9
2020-Oct-20 03:10 133 10 4.8
2020-Oct-20 03:00 130 9 4.9
2020-Oct-20 02:50 137 9 4.9
2020-Oct-20 02:40 143 9 4.9
2020-Oct-20 02:30 140 5 4.8
2020-Oct-20 02:20 134 9 4.9
2020-Oct-20 02:10 126 6 4.9
2020-Oct-20 02:00 130 7 5.1
2020-Oct-20 01:50 138 10 5.0
2020-Oct-20 01:40 136 9 5.0
2020-Oct-20 01:30 131 10 5.0
2020-Oct-20 01:20 119 2 4.7
2020-Oct-20 01:10 096 1 4.8
2020-Oct-20 01:00 094 0 4.7
2020-Oct-20 00:50 084 1 4.7
2020-Oct-20 00:40 048 0 4.7
2020-Oct-20 00:30 159 0 4.7
2020-Oct-20 00:20 072 0 4.7
2020-Oct-20 00:10 340 2 5.0
2020-Oct-20 00:00 018 0 4.9
2020-Oct-19 23:50 039 15 5.0
2020-Oct-19 23:40 108 31 5.0
2020-Oct-19 23:30 108 29 4.8
2020-Oct-19 23:10 229 13 5.0
2020-Oct-19 23:00 011 6 5.2
2020-Oct-19 22:50 311 0 5.0
2020-Oct-19 22:40 108 20 4.7
2020-Oct-19 22:30 014 1 6.0
2020-Oct-19 22:20 086 20 6.2
2020-Oct-19 22:10 016 0 6.4
2020-Oct-19 22:00 340 0 6.1
2020-Oct-19 21:50 298 0 5.8
2020-Oct-19 21:40 178 1 5.1
2020-Oct-19 21:30 006 2 4.8
2020-Oct-19 21:20 145 2 4.2
2020-Oct-19 21:10 118 0 4.1
2020-Oct-19 21:00 116 29 4.1
2020-Oct-19 20:50 003 4 4.1
2020-Oct-19 20:40 130 2 3.7
2020-Oct-19 20:30 108 0 3.9
2020-Oct-19 20:20 115 2 3.8
2020-Oct-19 20:10 137 2 3.8
2020-Oct-19 20:00 117 2 3.6
2020-Oct-19 19:50 138 3 3.6
2020-Oct-19 19:40 100 3 3.4
2020-Oct-19 19:20 106 1 3.5
2020-Oct-19 19:10 093 0 3.3
2020-Oct-19 19:00 063 0 3.2
2020-Oct-19 18:50 352 0 3.3
2020-Oct-19 18:40 344 0 3.3
2020-Oct-19 18:30 072 0 3.2
2020-Oct-19 18:20 057 2 3.1
2020-Oct-19 18:10 113 2 3.1
2020-Oct-19 18:00 092 3 3.0
2020-Oct-19 17:50 110 2 3.0
2020-Oct-19 17:40 113 2 3.0
2020-Oct-19 17:30 110 3 2.8
2020-Oct-19 17:10 096 3 2.6
2020-Oct-19 17:00 105 1 2.5
2020-Oct-19 16:50 338 0 2.5
2020-Oct-19 16:40 036 1 2.6
2020-Oct-19 16:30 061 0 2.6
2020-Oct-19 16:20 337 1 2.6
2020-Oct-19 16:10 063 0 2.9
2020-Oct-19 16:00 110 1 2.9
2020-Oct-19 15:50 042 1 3.1
2020-Oct-19 15:40 071 1 3.1
2020-Oct-19 15:30 113 1 3.3
2020-Oct-19 15:20 124 0 3.3
2020-Oct-19 15:10 120 0 3.4
2020-Oct-19 15:00 122 1 3.3
2020-Oct-19 14:50 110 2 3.3
2020-Oct-19 14:40 079 1 3.3
2020-Oct-19 14:30 117 3 3.3
2020-Oct-19 14:20 176 0 3.6
2020-Oct-19 14:10 039 2 3.7
2020-Oct-19 13:50 122 5 3.8
2020-Oct-19 04:50 015 6 4.9
2020-Oct-19 04:40 004 7 4.8
2020-Oct-19 04:30 005 7 4.8
2020-Oct-19 04:20 017 5 4.7
2020-Oct-19 04:10 354 10 4.7
2020-Oct-19 04:00 357 14 4.8
2020-Oct-19 03:50 357 16 4.6
2020-Oct-19 03:40 352 14 4.8
2020-Oct-19 03:30 001 12 4.8
2020-Oct-19 03:20 4.9
2020-Oct-19 03:10 012 11 4.9
2020-Oct-19 03:00 4.9
2020-Oct-19 02:50 353 17 4.9
2020-Oct-19 02:30 352 16 5.0
2020-Oct-19 02:20 352 15 4.9
2020-Oct-19 02:10 356 16 4.9
2020-Oct-19 01:50 4.8
2020-Oct-19 01:40 355 17 4.9
2020-Oct-19 01:30 355 18 4.9
2020-Oct-19 01:10 356 17 5.1
2020-Oct-19 01:00 007 11 5.1
2020-Oct-19 00:40 4.8
2020-Oct-19 00:30 355 13 4.8
2020-Oct-19 00:20 354 18 4.8
2020-Oct-19 00:10 357 21 4.8
2020-Oct-19 00:00 4.9
2020-Oct-18 23:50 352 19 4.9
2020-Oct-18 23:40 355 19 4.9
2020-Oct-18 23:30 357 16 5.0
2020-Oct-18 23:10 354 20 4.8
2020-Oct-18 23:00 021 12 4.9
2020-Oct-18 22:40 006 14 4.6
2020-Oct-18 22:30 4.8
2020-Oct-18 22:20 354 17 4.9
2020-Oct-18 22:10 4.8
2020-Oct-18 22:00 4.7
2020-Oct-18 21:50 037 11 4.9
2020-Oct-18 21:40 018 13 4.6
2020-Oct-18 21:30 007 13 4.6
2020-Oct-18 21:20 356 11 4.8
2020-Oct-18 21:10 355 15 4.7
2020-Oct-18 21:00 357 19 4.9
2020-Oct-18 20:50 001 12 5.1
2020-Oct-18 20:40 016 10 5.5
2020-Oct-18 20:30 025 9 5.2
2020-Oct-18 20:20 353 12 5.1
2020-Oct-18 20:10 352 12 5.0
2020-Oct-18 20:00 358 11 5.0
2020-Oct-18 19:50 354 9 5.0
2020-Oct-18 19:30 010 9 5.3
2020-Oct-18 19:20 045 11 5.5
2020-Oct-18 19:10 356 15 5.2
2020-Oct-18 19:00 348 19 5.0
2020-Oct-18 18:50 355 16 4.9
2020-Oct-18 18:40 356 17 4.9
2020-Oct-18 18:30 017 8 5.2
2020-Oct-18 18:20 351 13 5.2
2020-Oct-18 18:10 016 11 5.1
2020-Oct-18 18:00 004 4 5.1
2020-Oct-18 17:50 018 5 5.1
2020-Oct-18 17:40 039 10 4.9
2020-Oct-18 17:30 089 22 4.8
2020-Oct-18 17:20 101 28 4.8
2020-Oct-18 17:10 039 13 4.7
2020-Oct-18 16:50 355 1 4.6
2020-Oct-18 16:40 038 0 4.7
2020-Oct-18 16:20 040 10 5.0
2020-Oct-18 16:10 076 13 5.0
2020-Oct-18 15:50 033 6 5.0
2020-Oct-18 15:40 351 7 5.1
2020-Oct-18 15:30 026 6 5.0
2020-Oct-18 15:20 016 4 5.0
2020-Oct-18 15:10 024 9 5.0
2020-Oct-18 15:00 355 7 5.0
2020-Oct-18 14:50 020 9 4.9
2020-Oct-18 14:40 358 9 5.0
2020-Oct-18 14:30 027 9 5.2
2020-Oct-18 14:20 352 7 5.1
2020-Oct-18 14:10 001 6 5.0
2020-Oct-18 14:00 356 13 5.1